This is the latest recevied weather packets stored in our database for station/object KB0BS-13. If no packets are shown the sender has not sent any weather packets the latest 10 day(s).
| Time | Temp. | Humidity | Pressure | Rain* | Wind** | Luminosity | Snow |
|---|---|---|---|---|---|---|---|
| 1777893396 | -0.56° C | 99% | 999.8 hPa | 0 mm | - | 43 W/m² | - |
| 1777893092 | -0.56° C | 99% | 999.8 hPa | 0 mm | - | 32 W/m² | - |
| 1777892789 | -0.56° C | 99% | 1000.1 hPa | 0 mm | - | 28 W/m² | - |
| 1777892485 | -0.56° C | 99% | 1000 hPa | 0 mm | - | 25 W/m² | - |
| 1777892181 | -0.56° C | 99% | 1000 hPa | 0 mm | - | 22 W/m² | - |
| 1777891878 | -0.56° C | 99% | 999.9 hPa | 0 mm | - | 19 W/m² | - |
| 1777891575 | -0.56° C | 99% | 1000 hPa | 0 mm | - | 15 W/m² | - |
| 1777891272 | -0.56° C | 99% | 1000.1 hPa | 0 mm | - | 11 W/m² | - |
| 1777890971 | -0.56° C | 99% | 999.9 hPa | 0 mm | - | 8 W/m² | - |
| 1777890666 | -1.11° C | 99% | 1000.1 hPa | 0 mm | - | 5 W/m² | - |
| 1777890362 | -1.11° C | 99% | 1000 hPa | 0 mm | - | 4 W/m² | - |
| 1777890058 | -1.11° C | 99% | 1000 hPa | 0 mm | - | 2 W/m² | - |
| 1777889756 | -1.11° C | 99% | 1000 hPa | 0 mm | - | 1 W/m² | - |
| 1777889454 | -1.11° C | 99% | 1000.2 hPa | 0 mm | - | 1 W/m² | - |
| 1777889151 | -0.56° C | 99% | 1000.2 hPa | 0 mm | - | 0 W/m² | - |
| 1777888849 | -0.56° C | 99% | 1000.1 hPa | 0 mm | - | 0 W/m² | - |
| 1777888545 | 0° C | 99% | 1000.2 hPa | 0 mm | - | 0 W/m² | - |
| 1777888241 | 0° C | 99% | 1000.2 hPa | 0 mm | - | 0 W/m² | - |
| 1777887938 | 0° C | 99% | 1000.1 hPa | 0 mm | - | 0 W/m² | - |
| 1777887635 | -0.56° C | 99% | 1000.2 hPa | 0 mm | - | 0 W/m² | - |
| 1777887331 | -0.56° C | 99% | 1000.4 hPa | 0 mm | - | 0 W/m² | - |
| 1777887027 | -0.56° C | 99% | 1000.4 hPa | 0 mm | - | 0 W/m² | - |
| 1777886723 | 0° C | 99% | 1000.3 hPa | 0 mm | - | 0 W/m² | - |
| 1777886420 | 0.56° C | 99% | 1000.2 hPa | 0 mm | - | 0 W/m² | - |
| 1777886118 | 1.11° C | 99% | 1000.4 hPa | 0 mm | - | 0 W/m² | - |
* Rain latest hour (hover to see other rain measurements)
** Current wind speed in m/s (hover to see current wind gust speed)